Weather History for Amritsar, India

Change the Weather History Date:

Thursday, November 22, 2012

  Actual Average Record
Temperature  
Mean Temperature 62 °F -  
Max Temperature 79 °F 74 °F 84 °F (2001)
Min Temperature 46 °F 48 °F 41 °F (2003)
Degree Days  
Heating Degree Days 2    
Growing Degree Days 12 (Base 50)    
Moisture  
Dew Point 50 °F    
Average Humidity 72    
Maximum Humidity 100    
Minimum Humidity 18    
Precipitation  
Precipitation 0.00 in - - ()
Sea Level Pressure  
Sea Level Pressure 29.95 in    
Wind  
Wind Speed 2 mph ()    
Max Wind Speed 88 mph    
Max Gust Speed -    
Visibility 1.8 miles    
Events Fog    
Averages and records for this station are not official NWS values.
T = Trace of Precipitation, MM = Missing Value Source: Averaged Metar Reports

Daily Weather History Graph

Daily Weather History Graph

Search for Another Location

Airport:

Trip Planner

Search our weather history database for the weather conditions in past years. The results will help you decide how hot, cold, wet, or windy it might be!

Date:

Astronomy

Nov. 22, 2012 Rise Set
Actual Time 7:05 AM IST 5:28 PM IST
Civil Twilight 6:38 AM IST 5:54 PM IST
Nautical Twilight 6:09 AM IST 6:24 PM IST
Astronomical Twilight 5:40 AM IST 6:53 PM IST
Moon 1:42 PM IST (11/22) 1:17 AM IST (11/22)
Length of Visible Light 11h 15m
Length of Day
10h 23m
Waxing Gibbous, 67% of the Moon is Illuminated
Nov 22
Waxing Gibbous
Nov 28
Full
Dec 6
Last Quarter
Dec 13
New
Dec 20
First Quarter

Hourly Weather History & Observations

Time (IST) Temp. Dew Point Humidity Pressure Visibility Wind Dir Wind Speed Gust Speed Precip Events Conditions
12:00 AM 59.0 °F 53.6 °F 82% 30.01 in 1.2 mi Calm Calm - N/A   Scattered Clouds
12:30 AM 59.0 °F 53.6 °F 82% 30.01 in 1.2 mi Calm Calm - N/A   Scattered Clouds
1:00 AM 59.0 °F 53.6 °F 82% 29.98 in 1.2 mi Calm Calm - N/A   Scattered Clouds
1:30 AM 59.0 °F 53.6 °F 82% 29.98 in 1.2 mi Calm Calm - N/A   Scattered Clouds
2:00 AM 59.0 °F 53.6 °F 82% 29.98 in 1.2 mi Calm Calm - N/A   Scattered Clouds
2:30 AM 55 °F 53 °F 90% 29.98 in 1 mi Calm Calm - -   Mist
3:00 AM 51.8 °F 51.8 °F 100% 29.98 in 0.7 mi Calm Calm - N/A   Scattered Clouds
3:30 AM 51.8 °F 51.8 °F 100% 29.95 in 0.7 mi Calm Calm - N/A   Scattered Clouds
4:00 AM 51.8 °F 51.8 °F 100% 29.95 in 0.7 mi Calm Calm - N/A   Scattered Clouds
4:30 AM 51.8 °F 51.8 °F 100% 29.95 in 0.7 mi Calm Calm - N/A   Scattered Clouds
5:00 AM 51.8 °F 51.8 °F 100% 29.95 in 0.7 mi Calm Calm - N/A   Scattered Clouds
5:30 AM 50 °F 50 °F 100% 29.98 in 1 mi Calm Calm - -   Mist
5:30 AM 50.0 °F 50.0 °F 100% 29.95 in 0.6 mi Calm Calm - N/A   Scattered Clouds
6:00 AM 48.2 °F 48.2 °F 100% 29.95 in 0.6 mi Calm Calm - N/A   Scattered Clouds
6:30 AM 48.2 °F 48.2 °F 100% 29.95 in 0.6 mi Calm Calm - N/A   Scattered Clouds
7:00 AM 48.2 °F 48.2 °F 100% 29.98 in 0.6 mi Calm Calm - N/A   Scattered Clouds
7:30 AM 48.2 °F 48.2 °F 100% 29.98 in 0.6 mi Calm Calm - N/A   Scattered Clouds
8:00 AM 50.0 °F 50.0 °F 100% 29.98 in 0.5 mi Calm Calm - N/A Fog Fog
8:30 AM 51 °F 51 °F 99% 30.00 in 0 mi Calm Calm - - Fog Partial Fog
8:30 AM 50.0 °F 50.0 °F 100% 29.98 in 0.5 mi Calm Calm - N/A Fog Fog
9:00 AM 51.8 °F 51.8 °F 100% 29.98 in 0.5 mi Calm Calm - N/A Fog Fog
9:30 AM 51.8 °F 50.0 °F 94% 30.01 in 0.5 mi Calm Calm - N/A Fog Fog
10:30 AM 57.2 °F 46.4 °F 67% 30.01 in 1.2 mi Variable 1.2 mph - N/A   Haze
11:00 AM 60.8 °F 46.4 °F 59% 30.01 in 1.6 mi Variable 3.5 mph - N/A   Haze
11:30 AM - 49 °F % 29.98 in 1 mi North 87.5 mph - -   Haze
11:30 AM 64.4 °F 48.2 °F 56% 29.98 in 2.2 mi West 4.6 mph - N/A   Haze
12:00 PM 66.2 °F 48.2 °F 52% 29.98 in 2.2 mi WNW 4.6 mph - N/A   Haze
1:00 PM 73.4 °F 41.0 °F 31% 29.95 in 3.7 mi West 5.8 mph - N/A   Scattered Clouds
1:30 PM 75.2 °F 42.8 °F 31% 29.95 in 3.7 mi NW 8.1 mph - N/A   Scattered Clouds
2:00 PM 77.0 °F 41.0 °F 28% 29.92 in 3.7 mi NW 5.8 mph - N/A   Scattered Clouds
2:30 PM 79 °F 44 °F 18% 29.88 in 2 mi NW 5.8 mph - -  
2:30 PM 78.8 °F 42.8 °F 28% 29.92 in 3.7 mi NW 5.8 mph - N/A   Unknown
3:00 PM 78.8 °F 44.6 °F 30% 29.92 in 3.7 mi WNW 4.6 mph - N/A   Unknown
3:30 PM 78.8 °F 44.6 °F 30% 29.92 in 3.7 mi Variable 1.2 mph - N/A   Unknown
4:00 PM 77.0 °F 44.6 °F 32% 29.89 in 3.7 mi WNW 6.9 mph - N/A   Unknown
4:30 PM 75.2 °F 44.6 °F 34% 29.89 in 3.7 mi Variable 2.3 mph - N/A   Unknown
5:00 PM 75.2 °F 48.2 °F 38% 29.89 in 3.7 mi Calm Calm - N/A   Unknown
5:30 PM 71.6 °F 51.8 °F 50% 29.89 in 3.1 mi Calm Calm - N/A   Haze
6:00 PM 68.0 °F 50.0 °F 52% 29.89 in 3.1 mi Calm Calm - N/A   Haze
6:30 PM 68.0 °F 51.8 °F 56% 29.89 in 3.1 mi Calm Calm - N/A   Haze
7:00 PM 66.2 °F 51.8 °F 60% 29.92 in 2.5 mi Calm Calm - N/A   Haze
7:30 PM 66.2 °F 53.6 °F 64% 29.92 in 2.5 mi Calm Calm - N/A   Haze
8:00 PM 66.2 °F 55.4 °F 68% 29.92 in 2.5 mi Calm Calm - N/A   Haze
8:30 PM 64 °F 56 °F 68% 29.93 in 2 mi Calm Calm - -   Haze
8:30 PM 64.4 °F 55.4 °F 73% 29.92 in 2.5 mi Calm Calm - N/A   Haze
9:00 PM 64.4 °F 55.4 °F 73% 29.92 in 2.5 mi Calm Calm - N/A   Haze
9:30 PM 62.6 °F 55.4 °F 77% 29.95 in 2.5 mi Calm Calm - N/A   Haze
10:30 PM 62.6 °F 53.6 °F 72% 29.95 in 1.9 mi Calm Calm - N/A   Haze
11:00 PM 60.8 °F 53.6 °F 77% 29.95 in 1.6 mi Calm Calm - N/A   Mist
11:30 PM 59 °F 54 °F 80% 29.95 in 1 mi Calm Calm - -   Mist
11:30 PM 59.0 °F 55.4 °F 88% 29.95 in 1.6 mi Calm Calm - N/A   Mist